Location: Tel Aviv
(32.0670°N, 34.7670°E)
Time: 16:41:00
(UTC+03:00)

Vanguard 1 Rocket - Pass Details

Date: 14 December 2023
Orbit: 649 x 4219 km, 34.3° (Epoch: 17 September)

Event Time Altitude Azimuth Distance (km) Brightness Sun altitude
Exits shadow 00:56:04 45° 99° (E) 4,876 10.9 -70.1°
Drops below altitude 10° 01:09:43 10° 74° (ENE) 6,382 11.9 -67.3°
Sets 01:13:55 0° 71° (ENE) 7,040 12.3 -66.5°
